This is the latest recevied weather packets stored in our database for station/object K7KAR-2. If no packets are shown the sender has not sent any weather packets the latest 10 day(s).
| Time | Temp. | Humidity | Pressure | Rain* | Wind** | Luminosity | Snow |
|---|---|---|---|---|---|---|---|
| 1787819380 | 17.78° C | 46% | 1018.5 hPa | 0 mm | - | 0 W/m² | - |
| 1787819075 | 17.78° C | 45% | 1018.2 hPa | 0 mm | - | 0 W/m² | - |
| 1787818773 | 17.78° C | 46% | 1018.2 hPa | 0 mm | - | 0 W/m² | - |
| 1787818469 | 17.78° C | 45% | 1018.1 hPa | 0 mm | - | 0 W/m² | - |
| 1787818165 | 18.33° C | 45% | 1018.4 hPa | 0 mm | - | 0 W/m² | - |
| 1787817864 | 18.89° C | 43% | 1018.4 hPa | 0 mm | - | 0 W/m² | - |
| 1787817561 | 20° C | 41% | 1018.5 hPa | 0 mm | - | 0 W/m² | - |
| 1787817256 | 20° C | 40% | 1018.4 hPa | 0 mm | - | 0 W/m² | - |
| 1787816955 | 20° C | 40% | 1018.4 hPa | 0 mm | - | 0 W/m² | - |
| 1787816650 | 20.56° C | 39% | 1018.4 hPa | 0 mm | - | 0 W/m² | - |
| 1787816347 | 20.56° C | 39% | 1018.4 hPa | 0 mm | - | 0 W/m² | - |
| 1787816046 | 20° C | 40% | 1018.5 hPa | 0 mm | - | 0 W/m² | - |
| 1787815742 | 20° C | 41% | 1018.5 hPa | 0 mm | - | 0 W/m² | - |
| 1787815438 | 20° C | 40% | 1018 hPa | 0 mm | - | 0 W/m² | - |
| 1787815133 | 20° C | 41% | 1017.8 hPa | 0 mm | - | 0 W/m² | - |
| 1787814829 | 19.44° C | 41% | 1018.2 hPa | 0 mm | - | 0 W/m² | - |
| 1787814522 | 20.56° C | 40% | 1018.2 hPa | 0 mm | - | 0 W/m² | - |
| 1787814217 | 21.11° C | 38% | 1018.5 hPa | 0 mm | - | 0 W/m² | - |
| 1787813912 | 21.11° C | 38% | 1018.6 hPa | 0 mm | - | 0 W/m² | - |
| 1787813608 | 20.56° C | 38% | 1018.5 hPa | 0 mm | - | 0 W/m² | - |
| 1787813304 | 20.56° C | 39% | 1018.4 hPa | 0 mm | - | 0 W/m² | - |
| 1787813000 | 20.56° C | 39% | 1018.5 hPa | 0 mm | - | 0 W/m² | - |
| 1787812694 | 20° C | 40% | 1018.5 hPa | 0 mm | - | 0 W/m² | - |
| 1787812394 | 19.44° C | 41% | 1018.5 hPa | 0 mm | - | 0 W/m² | - |
| 1787812089 | 21.11° C | 39% | 1018.4 hPa | 0 mm | - | 0 W/m² | - |
* Rain latest hour (hover to see other rain measurements)
** Current wind speed in m/s (hover to see current wind gust speed)